Flag for Taiwan Weather past 2 weeks in Taichung, Taiwan

Now
81 °F

Passing clouds.


Feels Like: 85 °F
Forecast: 79 / 91 °F
Wind: 3 mph from North

Location: Chiang Kai Shek

Current Time: Aug 23, 2014 at 10:18:45 PM

Latest Report: Aug 23, 2014 at 9:30 PM


Visibility: N/A

Pressure: 29.83 "Hg

Humidity: 79%

Dew point: 73 °F

Location of TaichungLocation

Historic Weather in Taichung — Graph

°F

Taichung temperature yesterday

Maximum temperature yesterday: 90 °F (at 11:30 AM)
Minimum temperature yesterday: 79 °F (at 12:00 AM)
Average temperature yesterday: 84 °F

Past Weeks' High & Low Weather Summary

 TemperatureHumidityPressure
High97 °F (Aug 14, 1:00 PM)94% (Aug 12, 2:00 AM)29.89 "Hg (Aug 12, 2:00 AM)
Low75 °F (Aug 18, 6:56 PM)49% (Aug 23, 2:30 PM)29.53 "Hg (Aug 12, 3:00 PM)
Average85 °F74%29.74 "Hg
* Reported Aug 8 9:00 PM — Aug 23 9:00 PM, Taichung, Weather by CustomWeather, © 2014

Note: Actual official high and low records may vary slightly from our data, if they occured in-between our weather recording intervals... More about our weather records

Advertising

Taichung weather history for previous 24 hours

 ConditionsComfort  
Time TempWeatherWind HumidityBarometerVisibility
9:00 PM
Aug 23
82 °FPassing clouds.1 mph74%29.83 "HgN/A
8:30 PM81 °FPassing clouds.1 mph79%29.80 "HgN/A
8:00 PM82 °FPassing clouds.2 mph74%29.80 "HgN/A
7:30 PM82 °FPassing clouds.2 mph74%29.80 "HgN/A
7:00 PM82 °FPassing clouds.2 mph74%29.80 "HgN/A
6:30 PM82 °FPassing clouds.3 mph74%29.80 "HgN/A
6:00 PM86 °FScattered clouds.3 mph62%29.80 "HgN/A
5:30 PM86 °FBroken clouds.5 mph62%29.80 "HgN/A
5:00 PM88 °FBroken clouds.6 mph55%29.80 "HgN/A
4:30 PM88 °FBroken clouds.7 mph55%29.77 "HgN/A
4:00 PM88 °FBroken clouds.9 mph55%29.77 "HgN/A
3:30 PM88 °FBroken clouds.8 mph55%29.77 "HgN/A
3:00 PM90 °FBroken clouds.10 mph52%29.80 "HgN/A
2:30 PM90 °FBroken clouds.10 mph49%29.80 "HgN/A
1:30 PM90 °FPartly sunny.8 mph55%29.80 "HgN/A
1:00 PM90 °FPartly sunny.9 mph55%29.80 "HgN/A
12:30 PM90 °FScattered clouds.9 mph55%29.83 "HgN/A
12:00 PM88 °FPartly sunny.9 mph59%29.83 "HgN/A
11:30 AM88 °FPartly sunny.10 mph62%29.83 "HgN/A
10:30 AM90 °FPartly sunny.9 mph63%29.86 "HgN/A
10:00 AM90 °FPartly sunny.12 mph59%29.86 "HgN/A
9:30 AM88 °FPartly sunny.7 mph55%29.86 "HgN/A
8:30 AM86 °FScattered clouds.9 mph66%29.86 "HgN/A
7:30 AM82 °FScattered clouds.8 mph74%29.86 "HgN/A
7:00 AM82 °FScattered clouds.9 mph74%29.86 "HgN/A
6:30 AM81 °FScattered clouds.6 mph79%29.86 "HgN/A
6:00 AM79 °FScattered clouds.6 mph84%29.83 "HgN/A
5:30 AM79 °FPassing clouds.6 mph84%29.83 "HgN/A
5:00 AM79 °FPartly cloudy.6 mph84%29.83 "HgN/A
4:30 AM79 °FPartly cloudy.6 mph84%29.83 "HgN/A
4:00 AM81 °FPartly cloudy.7 mph79%29.83 "HgN/A
3:30 AM79 °FPartly cloudy.7 mph89%29.83 "HgN/A
3:00 AM79 °FPartly cloudy.7 mph89%29.83 "HgN/A
2:30 AM79 °FPartly cloudy.7 mph89%29.83 "HgN/A
2:00 AM79 °FPartly cloudy.9 mph89%29.83 "HgN/A
1:30 AM79 °FPassing clouds.7 mph89%29.83 "HgN/A
1:00 AM81 °FPassing clouds.8 mph89%29.83 "Hg5 mi
12:30 AM81 °FPassing clouds.8 mph89%29.86 "Hg5 mi
12:00 AM81 °FPassing clouds.7 mph89%29.86 "Hg4 mi
11:30 PM
Aug 22
81 °FPassing clouds.6 mph89%29.83 "Hg4 mi
11:00 PM81 °FPassing clouds.9 mph89%29.83 "Hg6 mi
10:30 PM82 °FPassing clouds.7 mph84%29.83 "HgN/A
10:00 PM82 °FPassing clouds.7 mph84%29.83 "HgN/A
Weather by CustomWeather, © 2014

See weather overviewHow to use our weather pages